Lid_Strength_Index
1 1 1 1 2 2 2 1 0 0 0 1 1 1 1 1 1 2 2 2 2 2
1 1 1 1 1 2 2 1 0 0 0 0 0 1 1 1 1 2 3 1 2 2
1 1 1 2 2 2 3 1 1 0 0 0 0 1 1 1 1 1 2 2 2 2
1 1 1 1 1 1 2 2 1 0 1 1 0 1 1 1 1 1 1 2 2 2
1 1 1 1 1 1 1 2 1 0 1 1 1 1 1 1 1 1 2 1 2 2
2 1 1 1 1 1 2 2 1 2 1 1 1 1 1 1 1 1 1 1 2 1
2 2 1 1 1 1 1 2 2 1 1 1 1 1 1 1 1 1 1 1 1 1
2 1 1 1 1 1 1 1 1 1 1 1 1 1 1 1 1 1 1 1 1 0
2 1 2 1 1 1 1 1 1 1 1 1 1 3 4 1 1 1 1 1 1 1
2 2 2 1 1 2 2 1 1 1 1 1 1 4 5 4 1 1 1 1 1 1
2 2 2 2 2 2 1 2 2 1 1 1 1 5 6 5 1 1 1 1 1 1
2 2 2 2 2 2 2 2 2 1 1 1 1 6 7 6 2 1 1 1 1 1
2 2 2 2 2 2 1 2 1 2 1 3 2 6 8 7 2 2 2 1 1 5
2 2 2 2 2 2 2 2 2 2 1 1 2 2 9 10 2 2 2 2 2 1